Find Galaxy 33

NORAD ID: 54026 Int'l Des: 2022-128 Owner: INTELU Country: US operational
HEOCIRCULARGSOGEO

Live-Position

3D-Globus wird geladen...

Über Galaxy 33

Beschreibung wird geladen...

Nächste Überflüge

Passes for default location (London). Set your location on the main map for personalized predictions.

Höhenverlauf

Loading altitude history...

Zweizeiliger Elementsatz

1 54026U 22128A 26132.58140149 .00000091 00000-0 00000-0 0 9998
2 54026 0.0120 290.8663 0001900 125.8816 249.9260 1.00270045 13383
Epoch: 12. Mai 2026 • Age: 4 hours

Aktueller Status

Höhe 35780.6 km
Geschwindigkeit 3.08 km/s
Subsatellitenpunkt 0.03°N, 133.01°W
Startdatum 8. Okt. 2022
Alter 3.5 years
Typ other

Technische Details

Klassifizierung Payload
Masse 3700.00 kg
Trockenmasse 2500.00 kg
Gesamtmasse 3700.00 kg
Länge 5.00 m
Durchmesser 2.50 m
Spannweite 23.00 m
Form Box + 2 pan
Hersteller NGISD
Bus-Typ Geostar-2.4E
Phasenstatus In Orbit
Besitzer/Staat INTELU/US

Most Searched